星链-4341 (STARLINK-4341 )

导读 | 豆包AI

STARLINK-4341是美国太空探索技术公司Starlink星链互联网卫星星座的成员之一,于2022年7月11日发射升空,归美国所有。星链计划旨在为全球提供覆盖广、低延迟的高速卫星互联网服务,该卫星服役至今,承担着为全球偏远地区、移动场景提供互联网接入的相关任务。

基本信息
目录编号:
53052
目录名称:
STARLINK-4341
国际标识:
2022-077K
轨道中心:
EARTH
卫星名称:
星链-4341
卫星全名:
星链-4341 (STARLINK-4341 )
卫星状态:
在轨 (已飞行1389 天)
发射日期:
2022-07-11 UTC
国别 :
美国 (US)
星等 :
--
轨道信息
数据来源 国际轨道数据
星历时间: 2026-04-30T07:56:22+0800
19小时前
查看轨道信息
半长轴: 6927.564km
偏心率: 0.0001501
轨道倾角: 97.557°
近地点辐角 102.475°
升交点赤经 300.611°
平近点角 257.665°
近地点: 548.387km
远地点: 550.467km
周期: 95.638分钟
每日圈数: 15.056775
详细信息
固有亮度:
5
最大亮度:
2.5
卫星平台:
Starlink v1.5
覆盖范围:
全球
运营商:
太空探索技术公司
运营商所在国:
美国
制造商(研发单位):
太空探索技术公司
制造商所在国:
美国
使用方式:
暂无
卫星简介
星链(Starlink)计划是由太空探索技术公司(SpaceX)提出的一个巨型低轨卫星互联网星座项目,计划在2019年至2024年间在太空搭建由约1.2万颗卫星组成的“星链”网络,其中1584颗将部署在地球上空550千米处的近地轨道,并从2020年开始工作。该卫星仍在工作。
2D轨道图
3D轨道图
轨道高度分析图
轨道倾角分析图
轨道综合分析图
查看轨道综合分析图